This is the latest recevied weather packets stored in our database for station/object YO8SDE-8. If no packets are shown the sender has not sent any weather packets the latest 10 day(s).
| Time | Temp. | Humidity | Pressure | Rain* | Wind** | Luminosity | Snow |
|---|---|---|---|---|---|---|---|
| 1777662965 | 6.67° C | 70% | 1012.9 hPa | 0 mm | - | - | - |
| 1777662665 | 7.78° C | 70% | 1012.9 hPa | 0 mm | - | - | - |
| 1777662365 | 7.78° C | 71% | 1012.8 hPa | 0 mm | - | - | - |
| 1777662065 | 8.33° C | 72% | 1012.8 hPa | 0 mm | - | - | - |
| 1777661765 | 8.89° C | 71% | 1012.7 hPa | 0 mm | - | - | - |
| 1777661465 | 8.89° C | 69% | 1012.8 hPa | 0 mm | - | - | - |
| 1777661165 | 8.89° C | 65% | 1012.9 hPa | 0 mm | - | - | - |
| 1777660865 | 9.44° C | 65% | 1012.9 hPa | 0 mm | - | - | - |
| 1777660565 | 8.89° C | 64% | 1012.8 hPa | 0 mm | - | - | - |
| 1777660265 | 9.44° C | 64% | 1012.8 hPa | 0 mm | - | - | - |
| 1777659965 | 9.44° C | 64% | 1012.8 hPa | 0 mm | - | - | - |
| 1777659665 | 9.44° C | 63% | 1012.9 hPa | 0 mm | - | - | - |
| 1777659365 | 9.44° C | 61% | 1012.9 hPa | 0 mm | - | - | - |
| 1777659065 | 10° C | 59% | 1012.8 hPa | 0 mm | - | - | - |
| 1777658765 | 10° C | 60% | 1012.8 hPa | 0 mm | - | - | - |
| 1777658465 | 11.11° C | 58% | 1012.8 hPa | 0 mm | - | - | - |
| 1777658165 | 11.11° C | 54% | 1012.7 hPa | 0 mm | - | - | - |
| 1777657865 | 11.67° C | 49% | 1012.5 hPa | 0 mm | - | - | - |
| 1777657565 | 11.67° C | 48% | 1012.4 hPa | 0 mm | - | - | - |
| 1777657265 | 11.67° C | 47% | 1012.3 hPa | 0 mm | - | - | - |
| 1777656965 | 11.67° C | 48% | 1012.2 hPa | 0 mm | - | - | - |
| 1777656665 | 11.67° C | 47% | 1012.2 hPa | 0 mm | - | - | - |
| 1777656365 | 11.67° C | 46% | 1012.2 hPa | 0 mm | - | - | - |
| 1777656065 | 11.67° C | 45% | 1012.1 hPa | 0 mm | - | - | - |
| 1777655765 | 11.67° C | 45% | 1012.2 hPa | 0 mm | - | - | - |
* Rain latest hour (hover to see other rain measurements)
** Current wind speed in m/s (hover to see current wind gust speed)